2020,04,25,00,00,00,152.1,,,,,,,,,,,,,,
2020,04,25,00,01,00,,,,,,,,,,,,,,,
2020,04,25,00,02,00,154.1,,,,,,,,,,,,,,
2020,04,25,00,03,00,152.6,,,,,,,,,,,,,,
2020,04,25,00,04,00,159.0,,,,,,,,,,,,,,
2020,04,25,00,05,00,170.8,,,,,,,,,,,,,,
2020,04,25,00,06,00,162.3,,,,,,,,,,,,,,
2020,04,25,00,07,00,147.2,,,,,,,,,,,,,,
2020,04,25,00,08,00,144.4,,,,,,,,,,,,,,
2020,04,25,00,09,00,141.6,,,,,,,,,,,,,,
2020,04,25,00,10,00,149.3,,,,,,,,,,,,,,
2020,04,25,00,11,00,166.3,,,,,,,,,,,,,,
2020,04,25,00,12,00,162.6,,,,,,,,,,,,,,
2020,04,25,00,13,00,150.4,,,,,,,,,,,,,,
2020,04,25,00,14,00,148.0,,,,,,,,,,,,,,
2020,04,25,00,15,00,151.4,,,,,,,,,,,,,,
2020,04,25,00,16,00,166.2,,,,,,,,,,,,,,
2020,04,25,00,17,00,180.3,,,,,,,,,,,,,,
2020,04,25,00,18,00,193.4,,,,,,,,,,,,,,
2020,04,25,00,19,00,196.0,,,,,,,,,,,,,,
2020,04,25,00,20,00,196.6,,,,,,,,,,,,,,
2020,04,25,00,21,00,182.1,,,,,,,,,,,,,,
2020,04,25,00,22,00,176.4,,,,,,,,,,,,,,
2020,04,25,00,23,00,155.8,,,,,,,,,,,,,,
2020,04,25,00,24,00,157.2,,,,,,,,,,,,,,
2020,04,25,00,25,00,175.2,,,,,,,,,,,,,,
2020,04,25,00,26,00,169.3,,,,,,,,,,,,,,
2020,04,25,00,27,00,158.7,,,,,,,,,,,,,,
2020,04,25,00,28,00,150.3,,,,,,,,,,,,,,
2020,04,25,00,29,00,143.0,,,,,,,,,,,,,,
2020,04,25,00,30,00,151.1,,,,,,,,,,,,,,
2020,04,25,00,31,00,166.5,,,,,,,,,,,,,,
2020,04,25,00,32,00,190.1,,,,,,,,,,,,,,
2020,04,25,00,33,00,198.2,,,,,,,,,,,,,,
2020,04,25,00,34,00,181.2,,,,,,,,,,,,,,
2020,04,25,00,35,00,173.9,,,,,,,,,,,,,,
2020,04,25,00,36,00,178.4,,,,,,,,,,,,,,
2020,04,25,00,37,00,184.5,,,,,,,,,,,,,,
2020,04,25,00,38,00,205.1,,,,,,,,,,,,,,
2020,04,25,00,39,00,218.8,,,,,,,,,,,,,,
2020,04,25,00,40,00,227.2,,,,,,,,,,,,,,
2020,04,25,00,41,00,226.0,,,,,,,,,,,,,,
2020,04,25,00,42,00,224.7,,,,,,,,,,,,,,
2020,04,25,00,43,00,221.0,,,,,,,,,,,,,,
2020,04,25,00,44,00,223.8,,,,,,,,,,,,,,
2020,04,25,00,45,00,223.3,,,,,,,,,,,,,,
2020,04,25,00,46,00,223.7,,,,,,,,,,,,,,
2020,04,25,00,47,00,224.3,,,,,,,,,,,,,,
2020,04,25,00,48,00,236.2,,,,,,,,,,,,,,
2020,04,25,00,49,00,250.7,,,,,,,,,,,,,,
2020,04,25,00,50,00,270.5,,,,,,,,,,,,,,
2020,04,25,00,51,00,269.0,,,,,,,,,,,,,,
2020,04,25,00,52,00,260.8,,,,,,,,,,,,,,
2020,04,25,00,53,00,266.2,,,,,,,,,,,,,,
2020,04,25,00,54,00,277.1,,,,,,,,,,,,,,
2020,04,25,00,55,00,261.7,,,,,,,,,,,,,,
2020,04,25,00,56,00,262.4,,,,,,,,,,,,,,
2020,04,25,00,57,00,265.3,,,,,,,,,,,,,,
2020,04,25,00,58,00,261.7,,,,,,,,,,,,,,
2020,04,25,00,59,00,251.8,,,,,,,,,,,,,,
2020,04,25,01,00,00,237.2,,,,,,,,,,,,,,
2020,04,25,01,01,00,230.8,,,,,,,,,,,,,,
2020,04,25,01,02,00,230.7,,,,,,,,,,,,,,
2020,04,25,01,03,00,227.6,,,,,,,,,,,,,,
2020,04,25,01,04,00,232.1,,,,,,,,,,,,,,
2020,04,25,01,05,00,244.4,,,,,,,,,,,,,,
2020,04,25,01,06,00,247.0,,,,,,,,,,,,,,
2020,04,25,01,07,00,246.3,,,,,,,,,,,,,,
2020,04,25,01,08,00,243.4,,,,,,,,,,,,,,
2020,04,25,01,09,00,229.7,,,,,,,,,,,,,,
2020,04,25,01,10,00,203.7,,,,,,,,,,,,,,
2020,04,25,01,11,00,203.1,,,,,,,,,,,,,,
2020,04,25,01,12,00,203.4,,,,,,,,,,,,,,
2020,04,25,01,13,00,217.3,,,,,,,,,,,,,,
2020,04,25,01,14,00,,,,,,,,,,,,,,,
2020,04,25,01,15,00,,,,,,,,,,,,,,,
2020,04,25,01,16,00,198.6,,,,,,,,,,,,,,
2020,04,25,01,17,00,191.3,,,,,,,,,,,,,,
2020,04,25,01,18,00,188.6,,,,,,,,,,,,,,
2020,04,25,01,19,00,186.8,,,,,,,,,,,,,,
2020,04,25,01,20,00,177.3,,,,,,,,,,,,,,
2020,04,25,01,21,00,152.9,,,,,,,,,,,,,,
2020,04,25,01,22,00,129.3,,,,,,,,,,,,,,
2020,04,25,01,23,00,126.1,,,,,,,,,,,,,,
2020,04,25,01,24,00,136.8,,,,,,,,,,,,,,
2020,04,25,01,25,00,136.1,,,,,,,,,,,,,,
2020,04,25,01,26,00,130.1,,,,,,,,,,,,,,
2020,04,25,01,27,00,127.1,,,,,,,,,,,,,,
2020,04,25,01,28,00,129.9,,,,,,,,,,,,,,
2020,04,25,01,29,00,127.7,,,,,,,,,,,,,,
2020,04,25,01,30,00,132.2,,,,,,,,,,,,,,
2020,04,25,01,31,00,130.4,,,,,,,,,,,,,,
2020,04,25,01,32,00,124.8,,,,,,,,,,,,,,
2020,04,25,01,33,00,116.1,,,,,,,,,,,,,,
2020,04,25,01,34,00,114.5,,,,,,,,,,,,,,
2020,04,25,01,35,00,114.7,,,,,,,,,,,,,,
2020,04,25,01,36,00,123.4,,,,,,,,,,,,,,
2020,04,25,01,37,00,140.6,,,,,,,,,,,,,,
2020,04,25,01,38,00,154.1,,,,,,,,,,,,,,
2020,04,25,01,39,00,171.2,,,,,,,,,,,,,,
2020,04,25,01,40,00,177.6,,,,,,,,,,,,,,
2020,04,25,01,41,00,186.6,,,,,,,,,,,,,,
2020,04,25,01,42,00,200.5,,,,,,,,,,,,,,
2020,04,25,01,43,00,208.3,,,,,,,,,,,,,,
2020,04,25,01,44,00,204.2,,,,,,,,,,,,,,
2020,04,25,01,45,00,200.6,,,,,,,,,,,,,,
2020,04,25,01,46,00,203.8,,,,,,,,,,,,,,
2020,04,25,01,47,00,219.7,,,,,,,,,,,,,,
2020,04,25,01,48,00,217.8,,,,,,,,,,,,,,
2020,04,25,01,49,00,192.2,,,,,,,,,,,,,,
2020,04,25,01,50,00,165.1,,,,,,,,,,,,,,
2020,04,25,01,51,00,136.1,,,,,,,,,,,,,,
2020,04,25,01,52,00,110.2,,,,,,,,,,,,,,
2020,04,25,01,53,00,82.8,,,,,,,,,,,,,,
2020,04,25,01,54,00,65.6,,,,,,,,,,,,,,
2020,04,25,01,55,00,49.3,,,,,,,,,,,,,,
2020,04,25,01,56,00,3.3,,,,,,,,,,,,,,
2020,04,25,01,57,00,-92.5,,,,,,,,,,,,,,
2020,04,25,01,58,00,-296.0,,,,,,,,,,,,,,
2020,04,25,01,59,00,-1052.1,,,,,,,,,,,,,,
2020,04,25,02,00,00,-2897.8,,,,,,,,,,,,,,
2020,04,25,02,01,00,-4606.6,,,,,,,,,,,,,,
2020,04,25,02,02,00,-3660.2,,,,,,,,,,,,,,
2020,04,25,02,03,00,-1455.9,,,,,,,,,,,,,,
2020,04,25,02,04,00,-48.3,,,,,,,,,,,,,,
2020,04,25,02,05,00,268.3,,,,,,,,,,,,,,
2020,04,25,02,06,00,275.6,,,,,,,,,,,,,,
2020,04,25,02,07,00,241.1,,,,,,,,,,,,,,
2020,04,25,02,08,00,195.1,,,,,,,,,,,,,,
2020,04,25,02,09,00,120.9,,,,,,,,,,,,,,
2020,04,25,02,10,00,66.4,,,,,,,,,,,,,,
2020,04,25,02,11,00,59.9,,,,,,,,,,,,,,
2020,04,25,02,12,00,63.3,,,,,,,,,,,,,,
2020,04,25,02,13,00,44.7,,,,,,,,,,,,,,
2020,04,25,02,14,00,24.8,,,,,,,,,,,,,,
2020,04,25,02,15,00,29.9,,,,,,,,,,,,,,
2020,04,25,02,16,00,45.8,,,,,,,,,,,,,,
2020,04,25,02,17,00,52.7,,,,,,,,,,,,,,
2020,04,25,02,18,00,65.9,,,,,,,,,,,,,,
2020,04,25,02,19,00,83.8,,,,,,,,,,,,,,
2020,04,25,02,20,00,98.3,,,,,,,,,,,,,,
2020,04,25,02,21,00,127.2,,,,,,,,,,,,,,
2020,04,25,02,22,00,152.5,,,,,,,,,,,,,,
2020,04,25,02,23,00,166.0,,,,,,,,,,,,,,
2020,04,25,02,24,00,178.4,,,,,,,,,,,,,,
2020,04,25,02,25,00,158.5,,,,,,,,,,,,,,
2020,04,25,02,26,00,176.6,,,,,,,,,,,,,,
2020,04,25,02,27,00,314.1,,,,,,,,,,,,,,
2020,04,25,02,28,00,389.8,,,,,,,,,,,,,,
2020,04,25,02,29,00,268.4,,,,,,,,,,,,,,
2020,04,25,02,30,00,133.2,,,,,,,,,,,,,,
2020,04,25,02,31,00,44.9,,,,,,,,,,,,,,
2020,04,25,02,32,00,277.3,,,,,,,,,,,,,,
2020,04,25,02,33,00,400.5,,,,,,,,,,,,,,
2020,04,25,02,34,00,412.3,,,,,,,,,,,,,,
2020,04,25,02,35,00,417.3,,,,,,,,,,,,,,
2020,04,25,02,36,00,391.2,,,,,,,,,,,,,,
2020,04,25,02,37,00,334.0,,,,,,,,,,,,,,
2020,04,25,02,38,00,274.0,,,,,,,,,,,,,,
2020,04,25,02,39,00,227.7,,,,,,,,,,,,,,
2020,04,25,02,40,00,236.4,,,,,,,,,,,,,,
2020,04,25,02,41,00,243.7,,,,,,,,,,,,,,
2020,04,25,02,42,00,282.5,,,,,,,,,,,,,,
2020,04,25,02,43,00,308.0,,,,,,,,,,,,,,
2020,04,25,02,44,00,304.6,,,,,,,,,,,,,,
2020,04,25,02,45,00,248.5,,,,,,,,,,,,,,
2020,04,25,02,46,00,114.5,,,,,,,,,,,,,,
2020,04,25,02,47,00,-42.4,,,,,,,,,,,,,,
2020,04,25,02,48,00,-176.5,,,,,,,,,,,,,,
2020,04,25,02,49,00,-214.4,,,,,,,,,,,,,,
2020,04,25,02,50,00,-130.0,,,,,,,,,,,,,,
2020,04,25,02,51,00,-36.7,,,,,,,,,,,,,,
2020,04,25,02,52,00,-106.0,,,,,,,,,,,,,,
2020,04,25,02,53,00,-349.1,,,,,,,,,,,,,,
2020,04,25,02,54,00,-618.4,,,,,,,,,,,,,,
2020,04,25,02,55,00,-743.0,,,,,,,,,,,,,,
2020,04,25,02,56,00,-778.8,,,,,,,,,,,,,,
2020,04,25,02,57,00,-885.9,,,,,,,,,,,,,,
2020,04,25,02,58,00,-1164.7,,,,,,,,,,,,,,
2020,04,25,02,59,00,-1609.8,,,,,,,,,,,,,,
2020,04,25,03,00,00,-2137.1,,,,,,,,,,,,,,
2020,04,25,03,01,00,-2097.8,,,,,,,,,,,,,,
2020,04,25,03,02,00,-952.9,,,,,,,,,,,,,,
2020,04,25,03,03,00,188.6,,,,,,,,,,,,,,
2020,04,25,03,04,00,782.1,,,,,,,,,,,,,,
2020,04,25,03,05,00,1014.5,,,,,,,,,,,,,,
2020,04,25,03,06,00,1043.2,,,,,,,,,,,,,,
2020,04,25,03,07,00,823.4,,,,,,,,,,,,,,
2020,04,25,03,08,00,597.7,,,,,,,,,,,,,,
2020,04,25,03,09,00,432.7,,,,,,,,,,,,,,
2020,04,25,03,10,00,479.9,,,,,,,,,,,,,,
2020,04,25,03,11,00,560.3,,,,,,,,,,,,,,
2020,04,25,03,12,00,533.1,,,,,,,,,,,,,,
2020,04,25,03,13,00,528.5,,,,,,,,,,,,,,
2020,04,25,03,14,00,469.4,,,,,,,,,,,,,,
2020,04,25,03,15,00,415.4,,,,,,,,,,,,,,
2020,04,25,03,16,00,378.5,,,,,,,,,,,,,,
2020,04,25,03,17,00,334.8,,,,,,,,,,,,,,
2020,04,25,03,18,00,320.7,,,,,,,,,,,,,,
2020,04,25,03,19,00,320.2,,,,,,,,,,,,,,
2020,04,25,03,20,00,364.0,,,,,,,,,,,,,,
2020,04,25,03,21,00,423.1,,,,,,,,,,,,,,
2020,04,25,03,22,00,428.1,,,,,,,,,,,,,,
2020,04,25,03,23,00,408.9,,,,,,,,,,,,,,
2020,04,25,03,24,00,418.9,,,,,,,,,,,,,,
2020,04,25,03,25,00,398.6,,,,,,,,,,,,,,
2020,04,25,03,26,00,368.4,,,,,,,,,,,,,,
2020,04,25,03,27,00,349.1,,,,,,,,,,,,,,
2020,04,25,03,28,00,328.6,,,,,,,,,,,,,,
2020,04,25,03,29,00,303.2,,,,,,,,,,,,,,
2020,04,25,03,30,00,294.2,,,,,,,,,,,,,,
2020,04,25,03,31,00,292.7,,,,,,,,,,,,,,
2020,04,25,03,32,00,284.5,,,,,,,,,,,,,,
2020,04,25,03,33,00,271.9,,,,,,,,,,,,,,
2020,04,25,03,34,00,257.1,,,,,,,,,,,,,,
2020,04,25,03,35,00,246.9,,,,,,,,,,,,,,
2020,04,25,03,36,00,246.4,,,,,,,,,,,,,,
2020,04,25,03,37,00,239.0,,,,,,,,,,,,,,
2020,04,25,03,38,00,237.7,,,,,,,,,,,,,,
2020,04,25,03,39,00,233.8,,,,,,,,,,,,,,
2020,04,25,03,40,00,229.8,,,,,,,,,,,,,,
2020,04,25,03,41,00,220.7,,,,,,,,,,,,,,
2020,04,25,03,42,00,202.7,,,,,,,,,,,,,,
2020,04,25,03,43,00,202.8,,,,,,,,,,,,,,
2020,04,25,03,44,00,203.9,,,,,,,,,,,,,,
2020,04,25,03,45,00,208.6,,,,,,,,,,,,,,
2020,04,25,03,46,00,203.5,,,,,,,,,,,,,,
2020,04,25,03,47,00,203.3,,,,,,,,,,,,,,
2020,04,25,03,48,00,203.2,,,,,,,,,,,,,,
2020,04,25,03,49,00,195.7,,,,,,,,,,,,,,
2020,04,25,03,50,00,185.1,,,,,,,,,,,,,,
2020,04,25,03,51,00,184.6,,,,,,,,,,,,,,
2020,04,25,03,52,00,186.4,,,,,,,,,,,,,,
2020,04,25,03,53,00,178.4,,,,,,,,,,,,,,
2020,04,25,03,54,00,176.6,,,,,,,,,,,,,,
2020,04,25,03,55,00,171.4,,,,,,,,,,,,,,
2020,04,25,03,56,00,166.2,,,,,,,,,,,,,,
2020,04,25,03,57,00,173.0,,,,,,,,,,,,,,
2020,04,25,03,58,00,191.9,,,,,,,,,,,,,,
2020,04,25,03,59,00,207.8,,,,,,,,,,,,,,
2020,04,25,04,00,00,218.9,,,,,,,,,,,,,,
2020,04,25,04,01,00,203.3,,,,,,,,,,,,,,
2020,04,25,04,02,00,199.6,,,,,,,,,,,,,,
2020,04,25,04,03,00,216.7,,,,,,,,,,,,,,
2020,04,25,04,04,00,240.4,,,,,,,,,,,,,,
2020,04,25,04,05,00,237.2,,,,,,,,,,,,,,
2020,04,25,04,06,00,232.8,,,,,,,,,,,,,,
2020,04,25,04,07,00,228.5,,,,,,,,,,,,,,
2020,04,25,04,08,00,214.8,,,,,,,,,,,,,,
2020,04,25,04,09,00,204.2,,,,,,,,,,,,,,
2020,04,25,04,10,00,212.7,,,,,,,,,,,,,,
2020,04,25,04,11,00,221.0,,,,,,,,,,,,,,
2020,04,25,04,12,00,222.5,,,,,,,,,,,,,,
2020,04,25,04,13,00,235.7,,,,,,,,,,,,,,
2020,04,25,04,14,00,232.3,,,,,,,,,,,,,,
2020,04,25,04,15,00,202.6,,,,,,,,,,,,,,
2020,04,25,04,16,00,203.4,,,,,,,,,,,,,,
2020,04,25,04,17,00,224.1,,,,,,,,,,,,,,
2020,04,25,04,18,00,243.7,,,,,,,,,,,,,,
2020,04,25,04,19,00,249.2,,,,,,,,,,,,,,
2020,04,25,04,20,00,225.3,,,,,,,,,,,,,,
2020,04,25,04,21,00,214.2,,,,,,,,,,,,,,
2020,04,25,04,22,00,203.9,,,,,,,,,,,,,,
2020,04,25,04,23,00,206.5,,,,,,,,,,,,,,
2020,04,25,04,24,00,221.0,,,,,,,,,,,,,,
2020,04,25,04,25,00,233.8,,,,,,,,,,,,,,
2020,04,25,04,26,00,221.3,,,,,,,,,,,,,,
2020,04,25,04,27,00,224.5,,,,,,,,,,,,,,
2020,04,25,04,28,00,223.0,,,,,,,,,,,,,,
2020,04,25,04,29,00,206.5,,,,,,,,,,,,,,
2020,04,25,04,30,00,203.9,,,,,,,,,,,,,,
2020,04,25,04,31,00,204.0,,,,,,,,,,,,,,
2020,04,25,04,32,00,196.4,,,,,,,,,,,,,,
2020,04,25,04,33,00,176.5,,,,,,,,,,,,,,
2020,04,25,04,34,00,155.5,,,,,,,,,,,,,,
2020,04,25,04,35,00,145.7,,,,,,,,,,,,,,
2020,04,25,04,36,00,153.8,,,,,,,,,,,,,,
2020,04,25,04,37,00,178.6,,,,,,,,,,,,,,
2020,04,25,04,38,00,193.7,,,,,,,,,,,,,,
2020,04,25,04,39,00,195.9,,,,,,,,,,,,,,
2020,04,25,04,40,00,176.9,,,,,,,,,,,,,,
2020,04,25,04,41,00,166.3,,,,,,,,,,,,,,
2020,04,25,04,42,00,167.6,,,,,,,,,,,,,,
2020,04,25,04,43,00,150.3,,,,,,,,,,,,,,
2020,04,25,04,44,00,141.7,,,,,,,,,,,,,,
2020,04,25,04,45,00,142.4,,,,,,,,,,,,,,
2020,04,25,04,46,00,155.4,,,,,,,,,,,,,,
2020,04,25,04,47,00,168.2,,,,,,,,,,,,,,
2020,04,25,04,48,00,152.1,,,,,,,,,,,,,,
2020,04,25,04,49,00,151.4,,,,,,,,,,,,,,
2020,04,25,04,50,00,152.3,,,,,,,,,,,,,,
2020,04,25,04,51,00,191.1,,,,,,,,,,,,,,
2020,04,25,04,52,00,203.8,,,,,,,,,,,,,,
2020,04,25,04,53,00,203.6,,,,,,,,,,,,,,
2020,04,25,04,54,00,201.0,,,,,,,,,,,,,,
2020,04,25,04,55,00,194.9,,,,,,,,,,,,,,
2020,04,25,04,56,00,189.9,,,,,,,,,,,,,,
2020,04,25,04,57,00,187.2,,,,,,,,,,,,,,
2020,04,25,04,58,00,199.1,,,,,,,,,,,,,,
2020,04,25,04,59,00,207.6,,,,,,,,,,,,,,
2020,04,25,05,00,00,228.1,,,,,,,,,,,,,,
2020,04,25,05,01,00,237.7,,,,,,,,,,,,,,
2020,04,25,05,02,00,248.9,,,,,,,,,,,,,,
2020,04,25,05,03,00,249.8,,,,,,,,,,,,,,
2020,04,25,05,04,00,240.2,,,,,,,,,,,,,,
2020,04,25,05,05,00,247.9,,,,,,,,,,,,,,
2020,04,25,05,06,00,239.5,,,,,,,,,,,,,,
2020,04,25,05,07,00,225.8,,,,,,,,,,,,,,
2020,04,25,05,08,00,228.3,,,,,,,,,,,,,,
2020,04,25,05,09,00,212.5,,,,,,,,,,,,,,
2020,04,25,05,10,00,227.7,,,,,,,,,,,,,,
2020,04,25,05,11,00,243.4,,,,,,,,,,,,,,
2020,04,25,05,12,00,228.4,,,,,,,,,,,,,,
2020,04,25,05,13,00,205.2,,,,,,,,,,,,,,
2020,04,25,05,14,00,202.8,,,,,,,,,,,,,,
2020,04,25,05,15,00,202.4,,,,,,,,,,,,,,
2020,04,25,05,16,00,203.1,,,,,,,,,,,,,,
2020,04,25,05,17,00,203.7,,,,,,,,,,,,,,
2020,04,25,05,18,00,204.6,,,,,,,,,,,,,,
2020,04,25,05,19,00,,,,,,,,,,,,,,,
2020,04,25,05,20,00,,,,,,,,,,,,,,,
2020,04,25,05,21,00,219.7,,,,,,,,,,,,,,
2020,04,25,05,22,00,230.6,,,,,,,,,,,,,,
2020,04,25,05,23,00,251.8,,,,,,,,,,,,,,
2020,04,25,05,24,00,262.9,,,,,,,,,,,,,,
2020,04,25,05,25,00,264.2,,,,,,,,,,,,,,
2020,04,25,05,26,00,274.4,,,,,,,,,,,,,,
2020,04,25,05,27,00,252.4,,,,,,,,,,,,,,
2020,04,25,05,28,00,231.1,,,,,,,,,,,,,,
2020,04,25,05,29,00,237.7,,,,,,,,,,,,,,
2020,04,25,05,30,00,249.7,,,,,,,,,,,,,,
2020,04,25,05,31,00,249.6,,,,,,,,,,,,,,
2020,04,25,05,32,00,228.0,,,,,,,,,,,,,,
2020,04,25,05,33,00,222.4,,,,,,,,,,,,,,
2020,04,25,05,34,00,231.1,,,,,,,,,,,,,,
2020,04,25,05,35,00,238.6,,,,,,,,,,,,,,
2020,04,25,05,36,00,242.7,,,,,,,,,,,,,,
2020,04,25,05,37,00,236.7,,,,,,,,,,,,,,
2020,04,25,05,38,00,226.4,,,,,,,,,,,,,,
2020,04,25,05,39,00,210.7,,,,,,,,,,,,,,
2020,04,25,05,40,00,202.7,,,,,,,,,,,,,,
2020,04,25,05,41,00,203.3,,,,,,,,,,,,,,
2020,04,25,05,42,00,227.3,,,,,,,,,,,,,,
2020,04,25,05,43,00,264.4,,,,,,,,,,,,,,
2020,04,25,05,44,00,286.1,,,,,,,,,,,,,,
2020,04,25,05,45,00,272.2,,,,,,,,,,,,,,
2020,04,25,05,46,00,176.1,,,,,,,,,,,,,,
2020,04,25,05,47,00,-86.7,,,,,,,,,,,,,,
2020,04,25,05,48,00,-607.1,,,,,,,,,,,,,,
2020,04,25,05,49,00,-1540.2,,,,,,,,,,,,,,
2020,04,25,05,50,00,-3140.3,,,,,,,,,,,,,,
2020,04,25,05,51,00,-5459.0,,,,,,,,,,,,,,
2020,04,25,05,52,00,-7678.6,,,,,,,,,,,,,,
2020,04,25,05,53,00,-8597.9,,,,,,,,,,,,,,
2020,04,25,05,54,00,-7469.8,,,,,,,,,,,,,,
2020,04,25,05,55,00,-5665.2,,,,,,,,,,,,,,
2020,04,25,05,56,00,-3577.4,,,,,,,,,,,,,,
2020,04,25,05,57,00,-1024.2,,,,,,,,,,,,,,
2020,04,25,05,58,00,3464.2,,,,,,,,,,,,,,
2020,04,25,05,59,00,6910.6,,,,,,,,,,,,,,
2020,04,25,06,00,00,8152.4,,,,,,,,,,,,,,
2020,04,25,06,01,00,8365.5,,,,,,,,,,,,,,
2020,04,25,06,02,00,8588.1,,,,,,,,,,,,,,
2020,04,25,06,03,00,7912.7,,,,,,,,,,,,,,
2020,04,25,06,04,00,5521.0,,,,,,,,,,,,,,
2020,04,25,06,05,00,3129.3,,,,,,,,,,,,,,
2020,04,25,06,06,00,1885.4,,,,,,,,,,,,,,
2020,04,25,06,07,00,533.5,,,,,,,,,,,,,,
2020,04,25,06,08,00,-237.1,,,,,,,,,,,,,,
2020,04,25,06,09,00,-1000.4,,,,,,,,,,,,,,
2020,04,25,06,10,00,-1727.4,,,,,,,,,,,,,,
2020,04,25,06,11,00,-2595.9,,,,,,,,,,,,,,
2020,04,25,06,12,00,-3724.5,,,,,,,,,,,,,,
2020,04,25,06,13,00,-4985.3,,,,,,,,,,,,,,
2020,04,25,06,14,00,-7203.1,,,,,,,,,,,,,,
2020,04,25,06,15,00,-12617.5,,,,,,,,,,,,,,
2020,04,25,06,16,00,-17966.4,,,,,,,,,,,,,,
2020,04,25,06,17,00,-19320.9,,,,,,,,,,,,,,
2020,04,25,06,18,00,-19233.8,,,,,,,,,,,,,,
2020,04,25,06,19,00,-20172.1,,,,,,,,,,,,,,
2020,04,25,06,20,00,-21682.4,,,,,,,,,,,,,,
2020,04,25,06,21,00,-22946.0,,,,,,,,,,,,,,
2020,04,25,06,22,00,-23787.0,,,,,,,,,,,,,,
2020,04,25,06,23,00,-24264.7,,,,,,,,,,,,,,
2020,04,25,06,24,00,-24546.2,,,,,,,,,,,,,,
2020,04,25,06,25,00,-23376.1,,,,,,,,,,,,,,
2020,04,25,06,26,00,-20823.1,,,,,,,,,,,,,,
2020,04,25,06,27,00,-16250.7,,,,,,,,,,,,,,
2020,04,25,06,28,00,-7855.7,,,,,,,,,,,,,,
2020,04,25,06,29,00,3219.3,,,,,,,,,,,,,,
2020,04,25,06,30,00,6057.1,,,,,,,,,,,,,,
2020,04,25,06,31,00,-11840.7,,,,,,,,,,,,,,
2020,04,25,06,32,00,-23356.8,,,,,,,,,,,,,,
2020,04,25,06,33,00,-22418.9,,,,,,,,,,,,,,
2020,04,25,06,34,00,-20082.4,,,,,,,,,,,,,,
2020,04,25,06,35,00,-17848.0,,,,,,,,,,,,,,
2020,04,25,06,36,00,-10462.4,,,,,,,,,,,,,,
2020,04,25,06,37,00,-6849.1,,,,,,,,,,,,,,
2020,04,25,06,38,00,-7903.9,,,,,,,,,,,,,,
2020,04,25,06,39,00,-3768.5,,,,,,,,,,,,,,
2020,04,25,06,40,00,3954.0,,,,,,,,,,,,,,
2020,04,25,06,41,00,5174.5,,,,,,,,,,,,,,
2020,04,25,06,42,00,3186.0,,,,,,,,,,,,,,
2020,04,25,06,43,00,2388.6,,,,,,,,,,,,,,
2020,04,25,06,44,00,1211.2,,,,,,,,,,,,,,
2020,04,25,06,45,00,1127.7,,,,,,,,,,,,,,
2020,04,25,06,46,00,1349.1,,,,,,,,,,,,,,
2020,04,25,06,47,00,926.6,,,,,,,,,,,,,,
2020,04,25,06,48,00,-102.5,,,,,,,,,,,,,,
2020,04,25,06,49,00,-81.5,,,,,,,,,,,,,,
2020,04,25,06,50,00,-164.8,,,,,,,,,,,,,,
2020,04,25,06,51,00,39.0,,,,,,,,,,,,,,
2020,04,25,06,52,00,500.2,,,,,,,,,,,,,,
2020,04,25,06,53,00,835.1,,,,,,,,,,,,,,
2020,04,25,06,54,00,917.0,,,,,,,,,,,,,,
2020,04,25,06,55,00,588.5,,,,,,,,,,,,,,
2020,04,25,06,56,00,-49.1,,,,,,,,,,,,,,
2020,04,25,06,57,00,-1054.7,,,,,,,,,,,,,,
2020,04,25,06,58,00,-2445.0,,,,,,,,,,,,,,
2020,04,25,06,59,00,-3707.8,,,,,,,,,,,,,,
2020,04,25,07,00,00,-4018.8,,,,,,,,,,,,,,
2020,04,25,07,01,00,-3522.6,,,,,,,,,,,,,,
2020,04,25,07,02,00,-3464.5,,,,,,,,,,,,,,
2020,04,25,07,03,00,-2960.3,,,,,,,,,,,,,,
2020,04,25,07,04,00,-4005.8,,,,,,,,,,,,,,
2020,04,25,07,05,00,-3877.1,,,,,,,,,,,,,,
2020,04,25,07,06,00,-5216.1,,,,,,,,,,,,,,
2020,04,25,07,07,00,-4674.3,,,,,,,,,,,,,,
2020,04,25,07,08,00,-4116.9,,,,,,,,,,,,,,
2020,04,25,07,09,00,-2625.5,,,,,,,,,,,,,,
2020,04,25,07,10,00,-2468.0,,,,,,,,,,,,,,
2020,04,25,07,11,00,-2178.2,,,,,,,,,,,,,,
2020,04,25,07,12,00,-1139.8,,,,,,,,,,,,,,
2020,04,25,07,13,00,518.7,,,,,,,,,,,,,,
2020,04,25,07,14,00,1431.7,,,,,,,,,,,,,,
2020,04,25,07,15,00,1662.3,,,,,,,,,,,,,,
2020,04,25,07,16,00,2000.9,,,,,,,,,,,,,,
2020,04,25,07,17,00,1995.0,,,,,,,,,,,,,,
2020,04,25,07,18,00,2428.1,,,,,,,,,,,,,,
2020,04,25,07,19,00,2119.5,,,,,,,,,,,,,,
2020,04,25,07,20,00,2224.0,,,,,,,,,,,,,,
2020,04,25,07,21,00,2165.7,,,,,,,,,,,,,,
2020,04,25,07,22,00,2279.2,,,,,,,,,,,,,,
2020,04,25,07,23,00,2314.8,,,,,,,,,,,,,,
2020,04,25,07,24,00,2449.0,,,,,,,,,,,,,,
2020,04,25,07,25,00,1800.5,,,,,,,,,,,,,,
2020,04,25,07,26,00,2290.9,,,,,,,,,,,,,,
2020,04,25,07,27,00,2266.9,,,,,,,,,,,,,,
2020,04,25,07,28,00,2231.3,,,,,,,,,,,,,,
2020,04,25,07,29,00,2317.7,,,,,,,,,,,,,,
2020,04,25,07,30,00,2545.1,,,,,,,,,,,,,,
2020,04,25,07,31,00,2898.0,,,,,,,,,,,,,,
2020,04,25,07,32,00,2140.7,,,,,,,,,,,,,,
2020,04,25,07,33,00,-445.0,,,,,,,,,,,,,,
2020,04,25,07,34,00,-1727.1,,,,,,,,,,,,,,
2020,04,25,07,35,00,-97.5,,,,,,,,,,,,,,
2020,04,25,07,36,00,2179.8,,,,,,,,,,,,,,
2020,04,25,07,37,00,3486.2,,,,,,,,,,,,,,
2020,04,25,07,38,00,3157.8,,,,,,,,,,,,,,
2020,04,25,07,39,00,1465.8,,,,,,,,,,,,,,
2020,04,25,07,40,00,-213.3,,,,,,,,,,,,,,
2020,04,25,07,41,00,-785.6,,,,,,,,,,,,,,
2020,04,25,07,42,00,-179.6,,,,,,,,,,,,,,
2020,04,25,07,43,00,377.9,,,,,,,,,,,,,,
2020,04,25,07,44,00,747.4,,,,,,,,,,,,,,
2020,04,25,07,45,00,984.7,,,,,,,,,,,,,,
2020,04,25,07,46,00,1222.5,,,,,,,,,,,,,,
2020,04,25,07,47,00,1202.8,,,,,,,,,,,,,,
2020,04,25,07,48,00,1151.3,,,,,,,,,,,,,,
2020,04,25,07,49,00,1442.6,,,,,,,,,,,,,,
2020,04,25,07,50,00,1588.0,,,,,,,,,,,,,,
2020,04,25,07,51,00,1605.3,,,,,,,,,,,,,,
2020,04,25,07,52,00,1561.3,,,,,,,,,,,,,,
2020,04,25,07,53,00,1547.7,,,,,,,,,,,,,,
2020,04,25,07,54,00,1567.0,,,,,,,,,,,,,,
2020,04,25,07,55,00,1649.8,,,,,,,,,,,,,,
2020,04,25,07,56,00,1663.3,,,,,,,,,,,,,,
2020,04,25,07,57,00,1632.5,,,,,,,,,,,,,,
2020,04,25,07,58,00,1642.3,,,,,,,,,,,,,,
2020,04,25,07,59,00,1702.1,,,,,,,,,,,,,,
2020,04,25,08,00,00,1776.7,,,,,,,,,,,,,,
2020,04,25,08,01,00,1720.9,,,,,,,,,,,,,,
2020,04,25,08,02,00,1642.4,,,,,,,,,,,,,,
2020,04,25,08,03,00,1698.6,,,,,,,,,,,,,,
2020,04,25,08,04,00,1868.3,,,,,,,,,,,,,,
2020,04,25,08,05,00,1918.0,,,,,,,,,,,,,,
2020,04,25,08,06,00,1843.6,,,,,,,,,,,,,,
2020,04,25,08,07,00,1810.1,,,,,,,,,,,,,,
2020,04,25,08,08,00,1821.7,,,,,,,,,,,,,,
2020,04,25,08,09,00,1742.1,,,,,,,,,,,,,,
2020,04,25,08,10,00,1666.2,,,,,,,,,,,,,,
2020,04,25,08,11,00,1635.7,,,,,,,,,,,,,,
2020,04,25,08,12,00,1671.7,,,,,,,,,,,,,,
2020,04,25,08,13,00,1679.3,,,,,,,,,,,,,,
2020,04,25,08,14,00,1597.6,,,,,,,,,,,,,,
2020,04,25,08,15,00,1535.9,,,,,,,,,,,,,,
2020,04,25,08,16,00,1549.5,,,,,,,,,,,,,,
2020,04,25,08,17,00,1460.9,,,,,,,,,,,,,,
2020,04,25,08,18,00,1237.3,,,,,,,,,,,,,,
2020,04,25,08,19,00,1065.7,,,,,,,,,,,,,,
2020,04,25,08,20,00,961.4,,,,,,,,,,,,,,
2020,04,25,08,21,00,851.1,,,,,,,,,,,,,,
2020,04,25,08,22,00,766.1,,,,,,,,,,,,,,
2020,04,25,08,23,00,737.6,,,,,,,,,,,,,,
2020,04,25,08,24,00,692.2,,,,,,,,,,,,,,
2020,04,25,08,25,00,662.3,,,,,,,,,,,,,,
2020,04,25,08,26,00,604.6,,,,,,,,,,,,,,
2020,04,25,08,27,00,598.1,,,,,,,,,,,,,,
2020,04,25,08,28,00,631.9,,,,,,,,,,,,,,
2020,04,25,08,29,00,681.8,,,,,,,,,,,,,,
2020,04,25,08,30,00,704.1,,,,,,,,,,,,,,
2020,04,25,08,31,00,689.9,,,,,,,,,,,,,,
2020,04,25,08,32,00,683.5,,,,,,,,,,,,,,
2020,04,25,08,33,00,581.0,,,,,,,,,,,,,,
2020,04,25,08,34,00,493.7,,,,,,,,,,,,,,
2020,04,25,08,35,00,488.4,,,,,,,,,,,,,,
2020,04,25,08,36,00,492.0,,,,,,,,,,,,,,
2020,04,25,08,37,00,491.1,,,,,,,,,,,,,,
2020,04,25,08,38,00,456.4,,,,,,,,,,,,,,
2020,04,25,08,39,00,435.3,,,,,,,,,,,,,,
2020,04,25,08,40,00,422.3,,,,,,,,,,,,,,
2020,04,25,08,41,00,411.0,,,,,,,,,,,,,,
2020,04,25,08,42,00,382.4,,,,,,,,,,,,,,
2020,04,25,08,43,00,369.8,,,,,,,,,,,,,,
2020,04,25,08,44,00,349.5,,,,,,,,,,,,,,
2020,04,25,08,45,00,330.4,,,,,,,,,,,,,,
2020,04,25,08,46,00,378.5,,,,,,,,,,,,,,
2020,04,25,08,47,00,431.4,,,,,,,,,,,,,,
2020,04,25,08,48,00,452.2,,,,,,,,,,,,,,
2020,04,25,08,49,00,453.0,,,,,,,,,,,,,,
2020,04,25,08,50,00,453.5,,,,,,,,,,,,,,
2020,04,25,08,51,00,464.0,,,,,,,,,,,,,,
2020,04,25,08,52,00,487.4,,,,,,,,,,,,,,
2020,04,25,08,53,00,518.4,,,,,,,,,,,,,,
2020,04,25,08,54,00,571.8,,,,,,,,,,,,,,
2020,04,25,08,55,00,609.7,,,,,,,,,,,,,,
2020,04,25,08,56,00,605.8,,,,,,,,,,,,,,
2020,04,25,08,57,00,548.1,,,,,,,,,,,,,,
2020,04,25,08,58,00,445.3,,,,,,,,,,,,,,
2020,04,25,08,59,00,356.6,,,,,,,,,,,,,,
2020,04,25,09,00,00,286.4,,,,,,,,,,,,,,
2020,04,25,09,01,00,296.4,,,,,,,,,,,,,,
2020,04,25,09,02,00,342.8,,,,,,,,,,,,,,
2020,04,25,09,03,00,386.6,,,,,,,,,,,,,,
2020,04,25,09,04,00,321.4,,,,,,,,,,,,,,
2020,04,25,09,05,00,68.5,,,,,,,,,,,,,,
2020,04,25,09,06,00,69.2,,,,,,,,,,,,,,
2020,04,25,09,07,00,208.6,,,,,,,,,,,,,,
2020,04,25,09,08,00,378.2,,,,,,,,,,,,,,
2020,04,25,09,09,00,619.0,,,,,,,,,,,,,,
2020,04,25,09,10,00,736.9,,,,,,,,,,,,,,
2020,04,25,09,11,00,874.7,,,,,,,,,,,,,,
2020,04,25,09,12,00,721.2,,,,,,,,,,,,,,
2020,04,25,09,13,00,539.7,,,,,,,,,,,,,,
2020,04,25,09,14,00,535.2,,,,,,,,,,,,,,
2020,04,25,09,15,00,633.7,,,,,,,,,,,,,,
2020,04,25,09,16,00,719.6,,,,,,,,,,,,,,
2020,04,25,09,17,00,943.7,,,,,,,,,,,,,,
2020,04,25,09,18,00,965.8,,,,,,,,,,,,,,
2020,04,25,09,19,00,988.5,,,,,,,,,,,,,,
2020,04,25,09,20,00,1391.9,,,,,,,,,,,,,,
2020,04,25,09,21,00,1908.5,,,,,,,,,,,,,,
2020,04,25,09,22,00,1868.4,,,,,,,,,,,,,,
2020,04,25,09,23,00,1410.3,,,,,,,,,,,,,,
2020,04,25,09,24,00,1785.9,,,,,,,,,,,,,,
2020,04,25,09,25,00,1788.3,,,,,,,,,,,,,,
2020,04,25,09,26,00,1747.8,,,,,,,,,,,,,,
2020,04,25,09,27,00,1692.6,,,,,,,,,,,,,,
2020,04,25,09,28,00,1617.8,,,,,,,,,,,,,,
2020,04,25,09,29,00,1571.0,,,,,,,,,,,,,,
2020,04,25,09,30,00,1515.1,,,,,,,,,,,,,,
2020,04,25,09,31,00,1189.2,,,,,,,,,,,,,,
2020,04,25,09,32,00,1047.2,,,,,,,,,,,,,,
2020,04,25,09,33,00,1282.0,,,,,,,,,,,,,,
2020,04,25,09,34,00,1443.8,,,,,,,,,,,,,,
2020,04,25,09,35,00,1489.7,,,,,,,,,,,,,,
2020,04,25,09,36,00,1363.0,,,,,,,,,,,,,,
2020,04,25,09,37,00,1648.2,,,,,,,,,,,,,,
2020,04,25,09,38,00,1700.2,,,,,,,,,,,,,,
2020,04,25,09,39,00,1658.9,,,,,,,,,,,,,,